Current weather by "City, St" or "zip code"  
 

Current Conditions: Moriarty Municipal Airport, NM

Fair


38.0 F

Last Updated on Oct 30 2020, 11:55 pm MDT
Humidity: 91%
Wind Speed: N 0.0 mph
Barometer 30.23 in
Dewpoint: 35.8 F
Visibility: 10.00 mi
Precip: --
Heat Index: NA
Wind Chill: NA
Current conditions at:

Moriarty Municipal Airport, NM (K0E0)

Lat: 34.98374 Lon: 105.99576

Local Radar Image active severe weather and emergency alerts image image weather storm and storm spotter reports image weather observation monitoring service image
Local
Radar
Active
Alerts
Storm Reports Obs
Monitoring

Sign-up For Email & Text Message Weather Alert Notification Services



Advertise Here

Observation History for Moriarty Municipal Airport, NM


Time Wind
(mph)
Vis
(mi)
Weather Precip (in) Temperature (F) Relative
Humidity
Wind
Chill
(F)
Heat
Index
(F)
Pressure
Air Dwpt altimeter
(in)
sea level
(mb)
Rmks
11:55 pm MDT N 0.0 10.00 Fair -- 38.0 35.8 91% NA NA 30.23 M
10:55 pm MDT N 0.0 10.00 Fair -- 39.0 37.2 95% NA NA 30.25 M
9:55 pm MDT N 0.0 10.00 Fair -- 42.0 37.4 82% NA NA 30.23 M
8:55 pm MDT NE 3.5 10.00 Fair -- 43.0 37.6 81% NA NA 30.23 M
7:55 pm MDT N 0.0 10.00 Fair -- 48.0 37.9 69% NA NA 30.22 M
6:55 pm MDT N 0.0 10.00 Fair -- 49.0 38.5 66% NA NA 30.21 M
5:55 pm MDT S 6.9 10.00 Fair -- 57.0 36.5 46% 56 NA 30.20 M
4:55 pm MDT SW 5.8 10.00 Fair -- 65.0 30.7 28% NA NA 30.20 M
3:55 pm MDT E 3.5 10.00 Fair -- 64.0 36.3 36% NA NA 30.22 M
2:55 pm MDT N 0.0 10.00 Fair -- 63.0 38.1 40% NA NA 30.23 M
1:55 pm MDT W 3.5 10.00 Fair -- 60.0 38.5 45% NA NA 30.26 M
12:55 pm MDT N 0.0 10.00 Fair -- 57.0 38.3 49% NA NA 30.29 M
11:55 am MDT N 0.0 10.00 Fair -- 54.0 36.5 53% NA NA 30.33 M
10:55 am MDT N 3.5 10.00 Fair -- 48.0 37.4 66% NA NA 30.35 M
9:55 am MDT N 0.0 10.00 Fair -- 40.0 36.0 85% NA NA 30.37 M
8:55 am MDT N 0.0 10.00 Fair -- 34.0 32.2 94% NA NA 30.37 M
7:55 am MDT N 4.6 10.00 Fair -- 29.0 29.1 100% 24 NA 30.35 M
6:55 am MDT N 0.0 10.00 Fair -- 30.0 29.8 100% NA NA 30.35 M
5:55 am MDT N 0.0 10.00 Fair -- 30.0 29.8 100% NA NA 30.34 M
4:55 am MDT N 0.0 10.00 Fair -- 29.0 28.4 99% NA NA 30.32 M
3:55 am MDT N 0.0 10.00 Fair -- 29.0 29.5 100% NA NA 30.33 M
2:55 am MDT N 4.6 10.00 Fair -- 31.0 31.1 100% 26 NA 30.34 M
1:55 am MDT N 3.5 10.00 Fair -- 31.0 31.5 100% NA NA 30.34 M
12:55 am MDT N 3.5 10.00 Fair -- 32.0 31.6 100% NA NA 30.34 M

Regional Weather Observation


Santa Fe County Municipal Airport, NM (KSAF)

Fair
43.0 F

Moriarty Municipal Airport, NM (K0E0)

Fair
38.0 F

Albuquerque, Double Eagle II Airport, NM (KAEG)

Fair
40.0 F

Clines Corners, NM (KCQC)

Fair
37.0 F

Los Alamos Airport, NM (KLAM)

Fair
47.0 F

Belen Alexander Muni Airport, NM (KE80)

Fair
54.0 F